Regional Weather Roundup
Issued by NWS

Home | Current Version | Previous Version | Graphics & Text | Print | Product List | Glossary On
Versions: 1 2 3 4 5 6 7 8 9 10 11 12 13 14 15 16 17 18 19 20 21 22 23 24 25 26 27 28 29 30 31 32 33 34 35 36 37 38 39 40 41 42 43 44 45 46 47 48 49 50
000
ASUS43 KFSD 250102
RWRSD

WEATHER ROUNDUP FOR SOUTH DAKOTA
NATIONAL WEATHER SERVICE SIOUX FALLS SD
800 PM CDT MON APR 24 2017

NOTE: "FAIR" INDICATES FEW OR NO CLOUDS BELOW 12,000 FEET WITH NO
SIGNIFICANT WEATHER AND/OR OBSTRUCTIONS TO VISIBILITY.


SDZ001>005-009-010-012>017-250200-
NORTHWEST AND NORTH CENTRAL SOUTH DAKOTA

CITY           SKY/WX    TMP DP  RH WIND       PRES   REMARKS
BUFFALO          N/A     45  39  79 NE15      29.56S
FAITH            N/A     43  37  79 NE16      29.63R
MOBRIDGE       CLOUDY    42  32  67 N12       29.63S
$$

SDZ012>016-024>037-041>051-057-063-072>074-250200-
SOUTHWEST AND SOUTH CENTRAL SOUTH DAKOTA

CITY           SKY/WX    TMP DP  RH WIND       PRES   REMARKS
RAPID CTY ARPT PTCLDY    54  38  54 NE13      29.58S
PIERRE         PTCLDY    46  37  71 N16       29.61R
CUSTER         HVY RAIN  43  38  82 E5        29.62R
ELLSWORTH AFB  MOCLDY    56  38  51 NE9       29.58S
PHILIP         MOCLDY    52  42  69 E10       29.60R
PINE RIDGE     MOCLDY    57  43  59 NE10      29.56F
SPEARFISH      FAIR      52  37  58 E10       29.60S
WINNER         FAIR      53  41  63 N12       29.61R
$$

SDZ004>011-016>023-039-040-250200-
NORTHEAST SOUTH DAKOTA

CITY           SKY/WX    TMP DP  RH WIND       PRES   REMARKS
ABERDEEN       CLOUDY    41  33  73 N16       29.62R
WATERTOWN      MOCLDY    53  44  71 NW13      29.52R
BROOKINGS      MOCLDY    56  45  66 W3        29.51R
SISSETON         N/A     44  41  89 N23       29.53R
$$

SDZ017-020-022-023-036>040-048>070-250200-
SOUTHEAST SOUTH DAKOTA

CITY           SKY/WX    TMP DP  RH WIND       PRES   REMARKS
SIOUX FALLS    MOCLDY    61  47  59 NW12      29.50R
HURON          PTCLDY    50  39  66 NW20G25   29.56R
CHAMBERLAIN    CLEAR     52  41  65 W18       29.60R
MITCHELL       PTCLDY    56  42  59 NW10      29.56R
YANKTON        CLEAR     55  41  58 NW17      29.53R
$$

ABBREVIATIONS USED IN REMARKS
   TC - TEMPERATURE IN CELSIUS
  WCI - WIND CHILL INDEX
   HX - HEAT INDEX
  VSB - VISIBILITY





USA.gov is the U.S. government's official web portal to all federal, state and local government web resources and services.